User: anonymous   Login
Location: Unspecified
(17.6330°N, 0.0000°E)
Time: 12:33:56
(UTC+00:00)
Language:

SR - Orbit

View from above orbital plane
View from above orbital plane
View from above satellite
View from above satellite

Ground track
Ground track

The orbit data is extracted from the following two-line orbital elements,

1    46U 60007B   19175.74825370 -.00000083 +00000-0 +66895-5 0  9993
2    46 066.6911 295.7234 0205632 036.8451 324.6584 14.49230881087139
Epoch (UTC): 24 June 2019 17:57:29
Eccentricity: 0.0205632
inclination: 66.6911°
perigee height: 582 km
apogee height: 874 km
right ascension of ascending node: 295.7234°
argument of perigee: 36.8451°
revolutions per day: 14.49230881
mean anomaly at epoch: 324.6584°
orbit number at epoch: 8713

The dashed part of the orbit path shows where the satellite is in the earth's shadow,  

DLR